TG9ADI-20 Weather Reports


time (UTC)temp
C
wind
direction
speed
KPH
gust
KPH
rain 1hr
cm
rain 24hr
cm
rain mn
cm
humidity
%
barometer
mb
20260507135751 19 180 6.4 0.0 0.00 0.00 0.00 88 1015.0
20260507134750 19 180 6.4 0.0 0.00 0.00 0.00 88 1015.0
20260507133750 20 190 8.0 12.9 0.00 0.00 0.00 93 1015.0
20260507132749 20 180 6.4 0.0 0.00 0.00 0.00 93 1015.0
20260507131748 18 198 8.0 12.9 0.00 0.00 0.00 93 1015.0
20260507130748 19 202 11.3 16.1 0.00 0.00 0.00 93 1015.0
20260507125747 18 192 8.0 16.1 0.00 0.00 0.00 10 1015.0
20260507124746 18 196 12.9 16.1 0.00 0.00 0.00 10 1015.0
20260507123746 18 188 8.0 12.9 0.00 0.00 0.00 10 1015.0
20260507122745 17 190 6.4 11.3 0.00 0.00 0.00 99 1014.0
20260507121744 17 190 6.4 11.3 0.00 0.00 0.00 99 1014.0
20260507120744 17 182 8.0 12.9 0.00 0.00 0.00 99 1014.0
20260507115743 18 180 6.4 0.0 0.00 0.00 0.00 97 1014.0
20260507114742 17 186 11.3 16.1 0.00 0.00 0.00 96 1014.0
20260507113742 17 195 8.0 16.1 0.00 0.00 0.00 96 1014.0
20260507112741 17 190 8.0 16.1 0.00 0.00 0.00 96 1014.0
20260507111741 18 198 8.0 16.1 0.00 0.00 0.00 97 1014.0
20260507110740 17 184 8.0 12.9 0.00 0.00 0.00 96 1014.0
20260507105739 17 188 8.0 12.9 0.00 0.00 0.00 96 1014.0
20260507104739 17 180 6.4 0.0 0.00 0.00 0.00 96 1014.0
20260507103738 17 180 6.4 0.0 0.00 0.00 0.00 96 1014.0
20260507102737 17 180 6.4 0.0 0.00 0.00 0.00 96 1014.0
20260507101737 17 180 6.4 0.0 0.00 0.00 0.00 96 1014.0
20260507100736 17 180 6.4 0.0 0.00 0.00 0.00 96 1014.0
20260507095735 17 180 6.4 0.0 0.00 0.00 0.00 96 1014.0
20260507094735 17 180 8.0 12.9 0.00 0.00 0.00 96 1014.0
20260507093734 18 180 6.4 0.0 0.00 0.00 0.00 97 1014.0
20260507092734 17 180 6.4 0.0 0.00 0.00 0.00 96 1014.0
20260507091733 17 180 6.4 0.0 0.00 0.00 0.00 98 1014.0
20260507090732 17 180 6.4 0.0 0.00 0.00 0.00 98 1014.0
20260507085732 18 180 6.4 0.0 0.00 0.00 0.00 96 1014.0
20260507084731 18 185 11.3 16.1 0.00 0.00 0.00 97 1014.0
20260507083730 18 201 8.0 16.1 0.00 0.00 0.00 97 1014.0
20260507082730 17 153 8.0 16.1 0.00 0.00 0.00 96 1014.0
20260507081729 17 182 8.0 16.1 0.00 0.00 0.00 96 1014.0
20260507080729 17 180 8.0 0.0 0.00 0.00 0.00 95 1014.0
20260507075727 17 206 8.0 17.7 0.00 0.00 0.00 96 1014.0
20260507074726 17 180 8.0 0.0 0.00 0.00 0.00 96 1014.0
20260507073726 17 180 8.0 0.0 0.00 0.00 0.00 96 1014.0
20260507072725 18 180 9.7 0.0 0.00 0.00 0.00 93 1015.0
20260507071725 17 198 8.0 12.9 0.00 0.00 0.00 96 1015.0
20260507070720 17 208 8.0 12.9 0.00 0.00 0.00 96 1015.0
20260507065719 18 150 8.0 16.1 0.00 0.00 0.00 93 1015.0
20260507064719 17 188 6.4 17.7 0.00 0.00 0.00 96 1015.0
20260507063718 17 186 6.4 17.7 0.00 0.00 0.00 96 1015.0
20260507062717 18 161 8.0 16.1 0.00 0.00 0.00 93 1015.0
20260507061717 17 180 17.7 0.0 0.00 0.00 0.00 96 1015.0
20260507060716 17 180 17.7 0.0 0.00 0.00 0.00 95 1015.0
20260507055715 18 180 17.7 0.0 0.00 0.00 0.00 92 1015.0
20260507054715 19 180 17.7 0.0 0.00 0.00 0.00 93 1015.0
20260507053714 18 180 17.7 0.0 0.00 0.00 0.00 92 1015.0
20260507052713 18 180 17.7 0.0 0.00 0.00 0.00 92 1016.0
20260507051713 18 180 17.7 0.0 0.00 0.00 0.00 92 1016.0
20260507050712 18 180 17.7 0.0 0.00 0.00 0.00 92 1016.0
20260507045711 20 180 17.7 0.0 0.00 0.00 0.00 91 1016.0
20260507044711 18 180 17.7 0.0 0.00 0.00 0.00 95 1016.0
20260507043710 18 180 17.7 0.0 0.00 0.00 0.00 94 1016.0
20260507042709 20 180 17.7 0.0 0.00 0.00 0.00 91 1016.0
20260507041709 18 180 17.7 0.0 0.00 0.00 0.00 94 1015.0
20260507040708 18 180 17.7 0.0 0.00 0.00 0.00 93 1015.0
20260507035707 20 180 17.7 0.0 0.00 0.00 0.00 89 1015.0
20260507034706 20 180 17.7 0.0 0.00 0.00 0.00 91 1015.0
20260507033706 19 180 17.7 0.0 0.00 0.00 0.00 90 1015.0
20260507032705 19 180 17.7 0.0 0.00 0.00 0.00 90 1015.0
20260507031704 19 180 17.7 0.0 0.00 0.00 0.00 90 1015.0
20260507030704 20 180 17.7 0.0 0.00 0.00 0.00 92 1015.0
20260507025703 20 180 17.7 0.0 0.00 0.00 0.00 92 1015.0
20260507024702 20 180 17.7 0.0 0.00 0.00 0.00 93 1015.0
20260507023702 19 180 20.9 0.0 0.00 0.00 0.00 92 1015.0
20260507022701 19 180 20.9 0.0 0.00 0.00 0.00 92 1014.0
20260507021701 19 180 20.9 0.0 0.00 0.00 0.00 92 1014.0
20260507020700 20 180 20.9 0.0 0.00 0.00 0.00 92 1014.0
20260507015659 20 180 20.9 0.0 0.00 0.00 0.00 91 1014.0
20260507014659 18 180 20.9 0.0 0.00 0.00 0.00 95 1014.0
20260507013658 19 180 20.9 0.0 0.00 0.00 0.00 94 1014.0
20260507012658 20 180 20.9 0.0 0.00 0.00 0.00 91 1013.0
20260507011657 18 180 17.7 0.0 0.00 0.00 0.00 93 1012.0
20260507010656 20 180 17.7 0.0 0.00 0.00 0.00 92 1012.0
20260507005656 20 180 17.7 0.0 0.00 0.00 0.00 91 1012.0
20260507004655 20 180 17.7 0.0 0.00 0.00 0.00 91 1012.0
20260507003655 21 180 17.7 0.0 0.00 0.00 0.00 88 1012.0
20260507002654 21 180 17.7 0.0 0.00 0.00 0.00 85 1012.0
20260507001653 21 180 17.7 0.0 0.00 0.00 0.00 85 1012.0
20260507000653 21 180 17.7 0.0 0.00 0.00 0.00 85 1012.0
20260506235652 22 180 17.7 0.0 0.00 0.00 0.00 81 1012.0
20260506234651 22 180 17.7 0.0 0.00 0.00 0.00 73 1011.0
20260506233651 23 180 17.7 0.0 0.00 0.00 0.00 73 1011.0
20260506232650 23 180 17.7 0.0 0.00 0.00 0.00 73 1011.0
20260506231650 22 180 17.7 0.0 0.00 0.00 0.00 90 1011.0
20260506230649 22 180 17.7 0.0 0.00 0.00 0.00 90 1011.0
20260506225648 22 180 17.7 0.0 0.00 0.00 0.00 89 1011.0
20260506224648 25 180 17.7 0.0 0.00 0.00 0.00 79 1011.0
20260506223647 25 180 17.7 0.0 0.00 0.00 0.00 79 1011.0
20260506222647 25 200 24.1 0.0 0.00 0.00 0.00 78 1011.0
20260506221646 25 200 24.1 0.0 0.00 0.00 0.00 78 1011.0
20260506220645 25 200 24.1 0.0 0.00 0.00 0.00 77 1011.0
20260506215645 26 200 25.7 0.0 0.00 0.00 0.00 76 1011.0
20260506214644 26 200 25.7 0.0 0.00 0.00 0.00 77 1011.0
20260506213643 24 200 24.1 0.0 0.00 0.00 0.00 89 1011.0
20260506212643 26 200 25.7 0.0 0.00 0.00 0.00 76 1011.0
20260506211642 26 200 25.7 0.0 0.00 0.00 0.00 76 1011.0
20260506210031 25 153 12.9 24.1 0.00 0.00 0.00 10 1011.0
20260506205031 24 137 8.0 24.1 0.00 0.00 0.00 10 1011.0
20260506204030 24 110 8.0 22.5 0.00 0.00 0.00 10 1011.0
20260506203029 26 154 12.9 17.7 0.00 0.00 0.00 10 1011.0
20260506202019 26 140 8.0 22.5 0.00 0.00 0.00 10 1011.0
20260506201019 26 180 17.7 0.0 0.00 0.00 0.00 84 1011.0
20260506200018 26 180 17.7 0.0 0.00 0.00 0.00 84 1011.0
20260506195018 26 180 17.7 0.0 0.00 0.00 0.00 83 1012.0
20260506194017 26 180 17.7 0.0 0.00 0.00 0.00 83 1012.0
20260506193016 27 180 17.7 0.0 0.00 0.00 0.00 71 1012.0
20260506192016 27 180 17.7 0.0 0.00 0.00 0.00 72 1012.0
20260506191015 27 180 17.7 0.0 0.00 0.00 0.00 74 1012.0
20260506190015 26 132 12.9 20.9 0.00 0.00 0.00 10 1012.0
20260506185014 26 180 17.7 0.0 0.00 0.00 0.00 77 1012.0
20260506184013 27 180 17.7 0.0 0.00 0.00 0.00 64 1012.0
20260506183013 27 180 17.7 0.0 0.00 0.00 0.00 64 1012.0
20260506182012 28 180 17.7 0.0 0.00 0.00 0.00 48 1013.0
20260506181012 27 360 6.4 0.0 0.00 0.00 0.00 47 1013.0
20260506180011 27 360 6.4 0.0 0.00 0.00 0.00 47 1013.0
20260506175010 27 360 6.4 0.0 0.00 0.00 0.00 47 1013.0
20260506172923 27 360 6.4 0.0 0.00 0.00 0.00 47 1014.0
20260506171922 27 360 6.4 0.0 0.00 0.00 0.00 47 1014.0
20260506170922 27 360 6.4 0.0 0.00 0.00 0.00 47 1014.0
20260506165921 25 190 14.5 0.0 0.00 0.00 0.00 57 1014.0
20260506164920 25 190 14.5 0.0 0.00 0.00 0.00 57 1014.0
20260506163920 25 190 14.5 0.0 0.00 0.00 0.00 76 1014.0
20260506162919 25 190 14.5 0.0 0.00 0.00 0.00 76 1014.0
20260506162002 25 190 14.5 0.0 0.00 0.00 0.00 57 1014.0
20260506161001 25 190 14.5 0.0 0.00 0.00 0.00 57 1014.0
20260506160001 23 0 0.0 0.0 0.00 0.00 0.00 69 1014.0
20260506155000 23 0 0.0 0.0 0.00 0.00 0.00 69 1014.0
20260506153959 23 0 0.0 0.0 0.00 0.00 0.00 69 1014.0
20260506152959 23 260 4.8 11.3 0.00 0.00 0.00 83 1015.0
20260506151958 23 238 1.6 8.0 0.00 0.00 0.00 83 1015.0
20260506150957 23 262 1.6 8.0 0.00 0.00 0.00 74 1015.0
20260506145957 21 268 4.8 11.3 0.00 0.00 0.00 78 1015.0
20260506144956 21 271 1.6 6.4 0.00 0.00 0.00 78 1015.0
20260506143956 21 0 0.0 0.0 0.00 0.00 0.00 78 1015.0
20260506142955 21 279 1.6 8.0 0.00 0.00 0.00 82 1015.0
20260506141955 21 0 0.0 0.0 0.00 0.00 0.00 85 1015.0
20260506140954 21 0 0.0 0.0 0.00 0.00 0.00 78 1015.0
20260506135954 19 0 0.0 0.0 0.00 0.00 0.00 88 1015.0